Flag for U.S.A. Weather past 2 weeks in Brattleboro, Vermont, U.S.A.

Now
59 °F

Low clouds.


Feels Like: 59 °F
Forecast: 54 / 64 °F
Wind: 5 mph from North

Location: Keene / Dillant

Current Time: Oct 1, 2014 at 4:21:38 PM

Latest Report: Oct 1, 2014 at 3:55 PM


Visibility: 10 mi

Pressure: 30.09 "Hg

Humidity: 72%

Dew point: 50 °F

Location of BrattleboroLocation

Historic Weather in Brattleboro — Graph

°F

Brattleboro temperature yesterday

Maximum temperature yesterday: 63 °F (at 1:15 PM)
Minimum temperature yesterday: 55 °F (at 8:15 AM)
Average temperature yesterday: 59 °F

Past Weeks' High & Low Weather Summary

 TemperatureHumidityPressure
High82 °F (Sep 28, 3:15 PM)82% (Sep 16, 10:35 PM)30.63 "Hg (Sep 16, 10:35 PM)
Low34 °F (Sep 19, 6:15 AM)31% (Sep 19, 4:15 PM)29.56 "Hg (Sep 22, 12:15 AM)
Average56 °F65%30.14 "Hg
* Reported Sep 16 3:35 PM — Oct 1 3:15 PM, Brattleboro, Weather by CustomWeather, © 2014

Note: Actual official high and low records may vary slightly from our data, if they occured in-between our weather recording intervals... More about our weather records

Advertising

Brattleboro weather history for previous 24 hours

 ConditionsComfort  
Time TempWeatherWind HumidityBarometerVisibility
3:15 PM
Oct 1
57 °FOvercast.5 mph77%30.10 "Hg10 mi
2:55 PM59 °FOvercast.7 mph72%30.10 "Hg10 mi
2:35 PM57 °FLow clouds.No wind77%30.10 "Hg7 mi
2:15 PM57 °FMostly cloudy.3 mph72%30.10 "Hg10 mi
1:55 PM57 °FOvercast.6 mph72%30.10 "Hg10 mi
1:35 PM57 °FOvercast.5 mph72%30.11 "Hg5 mi
1:15 PM57 °FMostly cloudy.7 mph72%30.11 "Hg6 mi
12:55 PM59 °FOvercast.6 mph72%30.11 "Hg10 mi
12:35 PM59 °FOvercast.3 mph72%30.11 "Hg9 mi
12:15 PM59 °FOvercast.5 mph72%30.12 "Hg8 mi
11:55 AM57 °FLow clouds.5 mph77%30.12 "Hg9 mi
11:35 AM57 °FLow clouds.3 mph72%30.12 "Hg7 mi
11:15 AM57 °FOvercast.6 mph72%30.12 "Hg9 mi
10:55 AM57 °FLow clouds.6 mph72%30.12 "Hg9 mi
10:35 AM57 °FLow clouds.No wind72%30.12 "Hg3 mi
10:15 AM57 °FMore clouds than sun.No wind72%30.12 "Hg5 mi
9:55 AMN/AMostly cloudy.3 mphN/A30.11 "Hg5 mi
9:35 AM57 °FOvercast.7 mph72%30.10 "Hg5 mi
8:55 AM57 °FOvercast.8 mph72%30.10 "Hg2 mi
8:35 AM57 °FOvercast.3 mph72%30.10 "Hg2 mi
7:55 AM55 °FOvercast.No wind77%30.09 "Hg5 mi
7:35 AM55 °FOvercast.3 mph77%30.08 "Hg3 mi
7:15 AM55 °FOvercast.3 mph77%30.08 "Hg4 mi
6:55 AM55 °FOvercast.3 mph77%30.08 "Hg9 mi
6:35 AM57 °FMostly cloudy.No wind72%30.07 "Hg7 mi
6:15 AM57 °FOvercast.No wind72%30.07 "Hg9 mi
5:55 AM57 °FPartly cloudy.No wind72%30.06 "Hg10 mi
5:35 AM57 °FPartly cloudy.No wind72%30.06 "Hg10 mi
5:15 AM57 °FPassing clouds.No wind72%30.06 "Hg10 mi
4:55 AM57 °FPassing clouds.No wind72%30.05 "Hg10 mi
4:35 AM57 °FPassing clouds.No wind72%30.05 "Hg10 mi
4:15 AM57 °FPassing clouds.No wind72%30.04 "Hg10 mi
3:55 AM57 °FPassing clouds.3 mph72%30.04 "Hg10 mi
3:35 AM57 °FOvercast.No wind72%30.05 "Hg10 mi
3:15 AM57 °FOvercast.3 mph72%30.05 "Hg10 mi
2:55 AM57 °FMostly cloudy.3 mph72%30.05 "Hg8 mi
2:35 AM57 °FMostly cloudy.5 mph72%30.05 "Hg10 mi
2:15 AM57 °FMostly cloudy.No wind72%30.06 "Hg9 mi
1:55 AM57 °FOvercast.No wind72%30.06 "Hg7 mi
1:35 AM57 °FOvercast.No wind72%30.06 "Hg7 mi
1:15 AM57 °FOvercast.No wind72%30.06 "Hg8 mi
12:55 AM57 °FOvercast.No wind72%30.06 "Hg9 mi
12:35 AM57 °FMostly cloudy.No wind72%30.05 "Hg10 mi
12:15 AM57 °FMostly cloudy.5 mph72%30.05 "Hg10 mi
11:55 PM
Sep 30
57 °FMostly cloudy.5 mph72%30.06 "Hg10 mi
11:35 PM59 °FMostly cloudy.3 mph68%30.05 "Hg10 mi
11:15 PM59 °FOvercast.3 mph68%30.06 "Hg10 mi
10:55 PM59 °FMostly cloudy.3 mph68%30.06 "Hg10 mi
10:35 PM59 °FOvercast.3 mph68%30.06 "Hg10 mi
10:15 PM59 °FOvercast.3 mph68%30.05 "Hg10 mi
9:55 PM59 °FOvercast.5 mph68%30.05 "Hg10 mi
9:35 PM59 °FMostly cloudy.5 mph68%30.05 "Hg10 mi
9:15 PM59 °FOvercast.3 mph68%30.04 "Hg10 mi
8:55 PM61 °FOvercast.5 mph63%30.04 "Hg10 mi
8:35 PM61 °FOvercast.3 mph63%30.03 "Hg10 mi
8:15 PM61 °FOvercast.3 mph63%30.03 "Hg10 mi
7:55 PM61 °FOvercast.5 mph63%30.03 "Hg10 mi
7:35 PM61 °FOvercast.No wind63%30.03 "Hg10 mi
7:15 PM61 °FOvercast.No wind63%30.03 "Hg10 mi
6:55 PM61 °FOvercast.3 mph63%30.02 "Hg10 mi
6:35 PM61 °FOvercast.5 mph63%30.02 "Hg10 mi
6:15 PM61 °FOvercast.No wind63%30.01 "Hg10 mi
5:55 PM61 °FOvercast.5 mph63%30.01 "Hg10 mi
5:35 PM61 °FOvercast.3 mph63%30.01 "Hg10 mi
5:15 PM61 °FOvercast.5 mph63%30.01 "Hg10 mi
4:35 PM63 °FOvercast.No wind59%30.01 "Hg10 mi
4:15 PM61 °FMostly cloudy.5 mph63%30.01 "Hg10 mi
Weather by CustomWeather, © 2014

See weather overviewHow to use our weather pages